Vorticity
4 2 2 5 10 11 8 5 6 12 14 9 4 -1 -2 6 8 5 7 4 0 4 6 9 9 9 9 0 3 13 9 6 7 6 7 6 8 10 8 8 9 9 8 8 8 8 6 5 5 5 5 5 5 5 5 5 5 5 5 5 5 5 4 4 4 4 4 4 5 7 8 8 7 6 7 6 5 5 5 4 4 3 2 3 3 2
5 2 2 4 8 11 8 6 7 8 10 4 -3 2 5 2 2 2 9 10 2 5 9 8 8 7 7 5 1 2 5 8 7 5 9 8 5 9 9 8 9 9 9 8 7 7 7 5 5 5 4 5 4 4 5 5 5 6 5 5 5 5 4 4 4 4 5 5 7 8 7 7 6 6 5 5 5 4 3 3 2 2 1 1 1 1
7 4 3 4 6 10 10 9 7 5 9 5 -8 -1 5 1 6 8 13 17 2 5 18 10 8 9 5 5 4 4 6 7 8 6 6 8 7 6 7 7 8 9 9 8 6 6 6 6 6 5 5 5 4 5 6 6 6 5 5 5 5 5 5 5 4 5 6 5 7 8 7 6 6 5 4 4 3 2 2 2 1 2 2 2 1 1
16 12 7 6 5 5 9 11 8 3 7 8 -3 -0 6 2 8 5 6 20 11 4 11 4 4 10 7 6 3 2 5 4 6 8 6 6 7 6 6 6 8 8 7 7 6 6 7 7 7 6 6 6 6 7 6 5 5 4 5 6 5 6 7 6 6 6 6 6 7 7 6 6 5 4 3 3 2 2 2 1 2 2 3 3 3 4
21 22 12 6 6 5 7 9 10 8 6 6 1 4 8 0 5 6 -0 14 16 1 -4 -1 8 13 8 8 6 1 4 7 4 5 7 7 7 7 6 6 7 7 6 7 7 6 6 6 7 7 7 8 8 8 7 6 6 6 7 7 6 7 7 6 6 7 6 6 7 6 5 5 4 3 2 3 2 2 2 2 3 4 5 5 6 7
15 21 16 10 6 4 6 5 8 12 8 5 4 8 6 -7 0 10 3 9 20 9 2 6 9 11 9 7 6 4 4 6 3 2 5 5 6 6 5 7 7 7 6 5 6 6 5 5 7 7 6 6 7 7 7 8 8 9 9 8 7 7 7 6 7 7 7 6 6 5 5 4 3 3 2 3 2 2 3 4 5 5 5 7 8 11
12 15 17 15 9 5 5 4 6 11 10 5 6 11 5 -8 -4 6 4 9 10 -7 -12 1 3 4 11 11 7 7 6 4 2 5 5 2 4 4 4 7 7 6 7 4 4 5 4 4 4 5 5 4 5 6 7 8 9 10 10 9 8 7 8 8 8 8 6 6 5 4 4 4 3 3 3 3 3 3 4 4 4 4 5 8 12 13
15 15 14 15 13 9 4 3 5 9 11 6 6 10 5 -4 -2 1 1 6 4 -16 -19 9 22 15 11 10 8 7 5 5 5 5 5 2 3 4 3 6 6 6 6 4 5 4 3 3 3 4 4 3 5 5 5 7 6 7 8 8 8 8 9 8 9 9 7 6 4 5 5 4 4 3 3 4 3 4 4 3 4 4 5 10 13 11
15 16 15 11 14 16 9 5 7 6 7 9 9 9 7 4 5 4 -1 3 9 -2 -6 12 14 1 5 13 13 9 6 9 9 6 8 6 3 4 4 5 6 6 5 4 4 4 3 3 3 5 4 4 5 6 6 5 5 5 6 7 7 8 8 7 8 8 8 7 6 6 6 5 5 4 4 4 4 4 4 5 6 5 6 10 11 10
8 14 16 9 12 20 16 9 8 6 3 9 12 7 3 6 9 4 -1 4 10 2 -2 3 -5 -9 9 22 18 8 2 7 10 8 9 7 4 6 7 6 4 5 7 6 3 2 4 3 2 4 5 5 6 7 7 5 5 6 6 6 6 6 6 5 7 8 8 8 7 7 6 5 5 4 4 4 4 5 4 7 8 6 6 9 10 10
7 7 10 11 12 14 15 11 8 5 4 9 15 9 -0 1 7 5 3 8 7 3 3 -3 -6 5 10 11 18 13 1 1 5 8 10 7 5 6 6 5 5 6 7 5 4 4 5 5 5 6 5 5 6 6 6 5 5 6 6 6 5 5 6 6 7 8 7 7 7 6 5 6 5 4 5 5 5 6 6 8 9 7 6 8 9 9
8 4 5 12 16 12 10 13 11 9 11 8 7 9 3 -0 6 6 8 10 -3 -1 21 11 -5 6 6 6 24 23 10 5 2 3 7 8 7 7 8 6 5 7 6 6 9 9 8 7 9 11 7 4 5 6 6 5 4 5 4 5 5 5 6 7 7 7 7 7 7 6 6 6 6 5 6 6 6 5 7 9 9 7 7 8 8 7
9 10 9 9 18 18 8 12 18 10 5 4 2 7 5 0 7 7 3 10 1 -3 25 26 1 1 5 3 11 14 14 16 11 6 3 5 9 9 9 9 7 7 5 7 10 9 9 10 15 21 17 11 11 7 5 5 4 5 5 4 6 6 5 6 6 5 6 6 6 6 6 6 5 5 4 4 6 5 6 9 9 8 8 7 6 6
8 8 8 6 10 15 10 15 24 13 3 7 5 3 3 -3 2 6 -3 4 12 5 12 17 6 7 8 -2 1 13 15 10 10 11 6 4 7 10 12 11 8 6 5 6 10 9 9 8 13 20 17 15 18 12 7 8 6 7 8 7 7 5 5 6 5 5 4 5 6 5 5 6 4 3 2 3 6 7 8 10 10 9 8 5 5 5
7 2 8 11 6 9 12 13 20 21 17 17 11 7 9 2 -4 1 1 3 12 6 4 15 15 10 7 3 5 10 13 14 10 11 15 11 6 9 11 7 4 6 10 12 10 6 5 4 8 19 18 12 15 16 13 12 11 11 11 10 9 6 6 6 4 4 5 6 7 7 7 6 3 1 1 4 7 8 9 12 12 9 6 4 6 7
3 1 8 13 11 10 11 14 19 23 20 17 18 15 8 5 1 -4 -2 10 16 2 -6 6 15 11 10 13 10 5 12 20 11 7 14 10 9 16 14 11 13 13 15 18 11 2 4 8 8 16 21 14 10 14 16 15 15 14 12 11 10 9 8 8 8 8 9 10 9 8 7 4 2 1 3 6 8 7 10 13 11 7 4 6 9 9
5 8 11 8 10 11 6 9 17 19 21 21 22 16 2 4 13 3 -9 1 11 3 -0 5 6 10 9 2 1 12 19 12 5 14 18 4 5 16 14 10 8 3 8 15 11 5 8 12 9 10 15 13 9 11 16 18 18 16 14 13 13 14 13 13 13 12 11 10 9 8 7 6 5 5 7 8 8 9 12 12 7 4 7 10 10 6
8 11 16 13 11 14 9 6 12 19 19 8 5 18 21 13 18 16 1 1 7 -2 0 13 10 7 6 -5 -4 11 12 4 4 8 8 6 6 7 5 3 -1 4 20 25 12 2 0 2 6 9 8 7 7 8 11 15 17 16 17 17 16 16 16 14 12 11 11 11 12 10 9 9 10 10 11 12 11 12 11 8 5 8 11 10 6 3
8 4 8 17 21 21 17 9 7 15 18 5 -6 14 35 23 10 10 -1 1 13 -1 -11 6 14 13 11 3 3 3 -1 13 28 15 5 8 6 2 6 7 6 12 23 25 12 -1 -2 3 6 6 4 3 3 4 7 10 11 12 12 13 14 13 12 12 11 11 12 11 10 10 10 12 14 14 15 15 14 12 9 8 10 11 9 4 1 3
10 2 -8 2 21 22 13 12 13 9 18 28 7 -10 14 30 19 12 1 -6 -0 -4 -6 2 5 10 14 12 11 4 -2 12 23 11 0 -4 -3 7 12 9 10 2 -7 8 18 8 6 14 12 5 3 3 2 0 2 4 5 9 10 9 11 12 11 12 13 13 13 12 11 10 11 12 13 12 12 13 12 10 10 12 10 6 3 1 4 8
13 13 -1 -6 9 11 -2 -2 10 9 11 32 25 -16 -20 13 31 29 19 11 5 -4 -6 1 3 2 5 16 18 6 2 6 -2 -9 -5 -0 10 18 11 5 6 -7 -22 -5 18 15 7 5 2 2 1 1 3 1 -1 -0 2 6 9 9 10 12 12 12 12 13 13 13 12 10 8 8 8 9 10 12 12 11 11 9 6 3 3 6 9 11
8 13 6 -7 -10 4 15 8 4 9 8 18 35 19 -15 -17 13 33 23 15 22 13 -8 -11 2 5 2 13 17 8 10 10 -0 1 14 28 31 15 3 3 0 -7 -14 -8 12 24 14 -1 -4 0 2 2 5 6 2 -0 1 3 3 6 9 12 12 11 10 11 13 13 10 7 6 6 7 10 11 11 10 9 6 4 4 5 6 10 10 8
6 10 11 2 -12 -5 19 21 6 5 7 5 18 36 23 -15 -24 4 18 7 5 14 14 4 -2 -4 -5 4 14 11 5 4 10 20 26 39 42 21 12 14 7 9 7 -6 9 30 18 2 3 3 3 7 8 7 5 1 -0 1 0 2 4 6 9 11 11 10 11 12 10 8 8 8 10 11 9 9 7 4 3 5 7 8 9 9 6 3
7 5 8 13 8 -3 -1 12 15 10 10 10 7 17 35 22 -14 -23 1 21 16 12 21 19 5 -3 -13 -13 4 10 4 9 26 28 16 22 31 22 17 14 7 14 15 -2 7 26 16 5 7 1 -0 7 7 5 6 3 0 0 -0 0 0 0 4 10 13 12 11 12 12 12 12 11 10 9 7 6 4 3 5 9 11 10 9 6 4 3
17 6 2 5 8 -1 -11 -1 16 16 9 11 13 11 20 37 34 -0 -22 1 26 23 13 6 11 24 13 -9 -11 3 13 13 7 1 -2 7 16 13 11 10 4 3 4 -2 2 13 12 7 8 6 2 4 6 8 10 9 6 3 1 3 2 -1 1 7 13 14 11 10 11 11 11 10 8 6 5 4 5 8 12 13 10 7 5 5 6 5
19 13 2 -2 4 4 -9 -14 -3 9 13 6 7 18 16 15 34 31 -4 -21 -6 14 19 9 5 20 32 20 -4 -7 8 10 7 15 15 8 11 11 6 10 11 3 -1 2 2 3 7 9 8 6 3 2 4 6 10 10 9 6 1 2 4 2 0 2 9 14 12 9 9 8 7 7 6 5 5 8 11 13 13 8 3 3 5 6 6 5
9 19 18 7 4 11 10 4 0 4 18 17 3 10 22 17 16 25 22 1 -18 -10 8 14 4 -5 12 38 31 8 -7 -14 8 37 27 7 9 12 6 2 3 2 -0 2 5 3 8 15 12 2 -0 5 6 2 4 7 8 8 3 1 4 5 2 0 4 12 14 10 9 8 7 7 7 8 10 13 13 10 5 2 -0 2 7 7 6 6
-1 4 28 34 19 11 9 11 12 4 10 22 17 10 19 26 19 12 22 24 4 -10 -9 -0 4 -11 -16 10 28 27 8 -20 -22 -7 -6 -4 4 9 15 7 -6 -4 -0 2 9 9 10 15 11 1 -1 4 6 3 5 6 5 8 8 6 7 7 5 2 2 8 13 11 10 10 9 8 9 11 12 10 7 5 1 2 5 6 8 9 6 5
0 -21 -10 19 26 20 8 -1 2 3 7 15 16 15 18 25 23 7 8 23 25 16 5 -2 4 5 0 -2 -7 3 21 18 6 -1 -6 -2 -3 -2 10 6 -3 1 -0 0 9 10 13 15 7 2 3 3 4 2 2 3 3 6 7 5 7 7 5 4 3 7 13 11 10 10 8 7 9 10 10 6 5 6 5 6 9 9 8 8 5 5
-3 -12 -19 -10 3 16 18 8 -5 -12 -3 9 9 11 13 15 21 18 10 14 20 21 18 10 3 1 8 9 -13 -24 -8 8 18 22 16 13 13 14 12 4 6 12 5 3 4 -3 1 9 5 2 2 0 2 1 1 1 -1 2 4 2 3 5 5 5 3 6 14 13 10 11 8 8 11 9 8 8 7 8 8 6 3 2 2 1 0 1
-8 -3 3 0 -7 -5 7 24 22 -4 -12 -5 -4 8 19 7 2 16 23 20 11 6 13 24 24 8 0 6 6 1 -2 -11 -12 0 9 13 14 16 20 14 7 6 7 12 11 2 2 4 2 4 3 -1 1 -1 0 4 2 1 3 0 3 7 7 6 4 7 14 13 10 12 11 8 8 8 7 7 5 3 1 -2 -4 -1 1 -0 -0 0
2 2 7 10 5 -2 -3 13 32 29 18 -3 -28 -15 17 16 -1 1 15 24 22 11 5 15 28 28 18 13 11 16 20 8 -9 -14 -7 4 3 1 15 22 10 3 10 15 10 5 6 4 2 4 4 2 3 1 2 7 5 3 2 0 4 9 7 5 7 10 13 12 11 12 10 4 1 5 5 1 -2 -3 -3 -2 -0 1 2 1 1 1
9 9 6 6 8 10 3 -4 6 23 28 10 -13 -15 -1 4 3 3 3 9 16 16 10 6 9 13 18 20 13 11 20 27 21 4 -11 -9 -5 -7 2 17 16 9 7 13 19 15 12 15 15 10 6 3 3 5 6 7 5 2 1 3 6 8 7 6 9 10 10 13 15 12 6 -2 -4 1 1 -5 -4 1 3 4 3 2 2 3 2 2
18 10 6 6 8 5 -2 -10 -10 -3 3 4 8 13 7 -4 0 8 8 9 11 8 8 14 19 14 10 14 11 5 5 9 17 25 15 -5 -17 -20 -12 6 23 25 11 -1 5 11 13 20 20 11 4 4 5 5 3 5 7 3 1 4 5 5 7 6 8 10 12 16 18 14 7 1 -1 1 -2 -8 -4 2 4 4 3 2 2 2 1 3
36 30 16 8 9 9 7 4 -5 -14 -5 8 11 16 19 10 2 -0 -2 5 14 12 3 5 16 18 14 15 19 20 17 5 -4 5 17 16 7 -2 -9 -13 -9 6 15 5 -4 -4 1 12 23 21 11 3 3 4 2 3 5 2 3 7 6 5 6 6 7 8 8 11 12 11 12 9 8 7 1 -6 -3 0 2 3 3 2 2 0 1 2
34 48 49 32 15 9 7 9 7 -3 1 13 9 6 14 14 11 10 2 -2 5 11 8 4 3 4 3 5 11 22 33 36 25 11 4 9 17 13 1 -9 -16 -14 -4 -2 -12 -19 -15 -2 12 22 22 12 2 1 2 1 -1 -0 4 8 7 6 5 5 6 3 1 3 3 3 7 8 8 8 3 -1 -2 -1 1 2 1 2 1 -0 2 1
15 12 39 52 38 27 12 1 11 16 10 8 4 1 4 6 12 17 14 13 6 -5 1 13 11 3 -2 -2 0 2 9 21 30 35 33 27 25 16 -2 -10 -3 -0 -6 -10 -15 -18 -5 9 1 -5 9 19 12 6 4 -1 -2 2 6 7 6 4 4 5 3 -0 -0 3 3 1 2 2 2 4 2 0 0 -1 0 1 1 3 2 -0 1 1
17 -14 -1 19 22 33 25 5 7 12 4 2 5 7 6 4 6 7 9 20 10 -15 -7 18 18 5 2 6 9 4 -0 -0 -1 11 38 50 49 49 39 16 4 2 -0 6 11 6 11 24 10 -10 -0 12 10 10 10 2 -2 3 7 8 4 2 4 5 2 -1 -0 2 1 1 1 -0 -1 0 -0 -1 -0 -1 -1 -0 0 1 1 2 3 2
-4 -14 -6 -5 -1 23 22 5 10 15 8 5 4 9 12 4 -0 3 8 20 17 2 14 33 24 7 2 4 8 4 -2 2 2 -1 11 24 21 24 43 53 43 27 12 11 20 20 16 22 18 4 3 7 3 7 13 9 3 5 8 7 3 2 4 3 1 1 0 0 1 1 1 0 -1 -0 -0 -0 1 2 1 0 1 2 1 2 4 2
-19 -22 -14 -23 -16 16 26 16 16 11 9 14 10 9 16 11 5 5 3 6 7 5 20 33 21 7 5 5 8 9 -1 -4 6 7 -1 4 12 6 6 23 35 35 28 15 14 20 18 17 22 18 12 12 9 6 10 12 8 7 8 5 2 2 3 1 1 2 -1 -2 -1 -1 0 2 0 -1 -1 0 2 2 0 -1 2 5 3 2 4 4
7 -15 -13 -15 -19 -5 10 22 28 14 5 14 16 9 9 9 10 11 6 5 5 0 11 29 24 4 0 6 7 8 5 -5 -1 8 -7 -13 15 27 12 8 14 20 28 24 17 17 11 5 21 32 22 13 10 8 8 8 6 6 6 3 1 1 3 2 1 2 2 1 -1 -2 -1 -1 -1 0 2 4 3 2 1 2 3 4 3 2 3 3
38 4 -2 4 -6 -11 -9 -2 12 16 6 4 10 12 9 6 7 9 7 7 10 7 8 25 33 14 1 10 16 15 18 9 1 6 -4 -20 -5 13 9 12 19 13 12 17 19 20 16 7 13 27 24 12 7 10 10 7 7 9 7 3 1 2 4 3 1 3 5 4 4 3 2 1 2 3 4 6 3 0 2 4 4 4 4 3 2 2
34 15 13 9 -4 -4 1 -1 3 11 11 6 5 8 11 9 7 10 12 8 7 10 8 6 14 14 6 7 13 14 19 17 5 6 7 -3 -4 2 -1 9 26 17 3 11 24 25 21 18 17 20 24 19 11 10 9 8 10 12 7 1 1 3 4 2 2 3 4 5 6 5 5 5 4 2 6 10 7 0 -1 4 9 8 4 3 4 3
13 11 20 16 4 -3 -7 -2 6 10 12 14 11 9 13 13 7 5 10 13 8 7 12 7 -2 1 6 7 8 9 13 14 10 12 18 13 5 3 -3 1 21 22 3 6 29 28 14 17 25 24 20 18 11 6 6 9 12 11 6 2 2 3 3 1 1 2 2 3 3 1 3 5 4 4 9 9 3 -2 -4 3 11 9 3 4 4 2
9 9 13 11 12 8 -7 -6 2 -1 -2 5 8 11 16 16 15 11 8 13 14 6 10 20 13 4 6 11 13 13 11 10 8 7 11 13 12 12 6 1 16 30 14 3 21 27 11 10 23 24 17 12 7 5 8 11 12 7 3 3 3 1 1 1 1 1 0 0 2 4 5 4 3 6 7 4 4 5 3 5 10 5 2 5 4 1
11 12 16 14 15 15 5 -1 -1 -4 -3 1 0 5 12 9 8 14 10 6 8 6 4 14 22 17 11 10 14 15 12 12 15 11 7 8 9 12 14 12 16 26 19 6 14 27 23 21 23 17 10 7 4 6 9 8 8 7 5 4 4 2 3 3 -1 -1 1 1 3 5 4 3 3 4 3 3 3 1 -1 5 12 9 5 5 4 3
15 3 5 13 17 20 14 4 3 4 6 9 3 2 16 16 0 2 15 13 8 9 4 3 15 21 14 9 12 14 11 9 15 15 9 6 5 6 12 17 17 19 14 6 10 17 16 22 27 20 13 12 6 4 6 4 6 11 9 5 4 3 3 3 0 0 3 4 4 5 3 4 5 2 2 6 9 19 34 31 14 5 7 6 3 4
19 11 8 8 8 16 19 9 5 5 3 11 15 3 4 11 -3 -14 -1 7 5 9 6 -1 8 20 19 14 12 12 12 9 9 11 8 5 6 6 5 6 13 23 19 10 14 17 5 3 15 19 19 21 12 3 4 4 4 8 8 5 5 3 2 3 2 2 4 5 6 7 4 5 5 3 8 13 17 39 62 44 4 -5 8 8 3 4
5 5 16 19 8 8 16 13 7 6 -1 1 13 7 -7 -1 5 -4 -8 -4 2 8 9 5 7 13 18 19 13 9 13 12 8 11 11 7 7 11 15 14 16 22 19 10 15 23 8 -3 9 21 24 28 21 9 5 4 2 5 6 4 3 3 3 3 1 1 4 5 6 6 4 6 5 2 7 11 7 13 24 12 -6 -1 10 8 6 6
13 0 4 16 14 3 6 10 7 8 4 -3 7 16 5 -1 7 10 8 9 9 8 9 9 8 8 14 16 9 6 13 15 15 16 10 1 -0 2 4 8 11 12 12 13 26 34 17 4 17 29 26 23 19 12 8 6 5 7 7 5 4 4 3 1 1 2 4 4 5 6 5 6 4 -1 1 9 10 8 6 -1 -2 4 8 9 10 6
39 37 11 8 16 7 -1 4 8 10 9 5 15 30 24 12 13 16 14 12 9 8 9 10 8 9 16 16 8 5 10 13 15 14 8 16 42 52 37 30 40 42 29 23 39 47 26 6 13 24 19 14 14 13 12 8 6 6 6 5 4 4 3 4 4 5 5 4 5 7 6 4 3 2 3 6 9 8 4 -0 2 6 8 10 9 4
Height
5873 5873 5874 5877 5880 5882 5884 5886 5888 5891 5892 5894 5897 5901 5902 5904 5905 5904 5903 5902 5900 5900 5900 5900 5902 5901 5900 5901 5901 5901 5901 5901 5902 5903 5903 5904 5904 5905 5905 5906 5906 5907 5907 5908 5909 5909 5910 5910 5911 5912 5913 5914 5915 5916 5917 5918 5919 5919 5920 5921 5922 5922 5923 5923 5924 5924 5925 5925 5925 5926 5926 5927 5927 5927 5928 5928 5928 5928 5928 5929 5929 5929 5929 5929 5929 5929
5868 5869 5873 5877 5880 5881 5883 5884 5887 5889 5890 5891 5894 5899 5903 5905 5905 5904 5903 5902 5899 5898 5900 5899 5900 5900 5899 5899 5899 5900 5900 5900 5901 5902 5903 5903 5904 5904 5904 5905 5905 5906 5907 5908 5909 5909 5910 5911 5912 5912 5913 5913 5914 5915 5916 5917 5918 5919 5920 5920 5921 5921 5922 5923 5923 5924 5924 5925 5925 5926 5926 5926 5927 5927 5927 5928 5928 5928 5928 5928 5929 5929 5928 5929 5928 5927
5864 5867 5873 5876 5878 5879 5880 5882 5884 5886 5888 5889 5891 5895 5900 5902 5903 5902 5901 5902 5898 5896 5899 5898 5898 5899 5899 5898 5898 5899 5900 5900 5900 5901 5901 5902 5902 5903 5904 5904 5905 5906 5906 5907 5908 5909 5909 5910 5911 5912 5913 5913 5914 5915 5916 5917 5917 5918 5919 5919 5920 5920 5921 5922 5923 5923 5924 5924 5925 5925 5925 5926 5926 5927 5927 5928 5928 5928 5927 5927 5928 5928 5928 5928 5927 5926
5863 5868 5872 5874 5875 5876 5877 5879 5881 5883 5885 5886 5888 5890 5895 5899 5902 5901 5899 5901 5899 5896 5897 5897 5897 5897 5898 5897 5896 5896 5898 5898 5899 5900 5900 5900 5901 5902 5903 5904 5905 5906 5906 5907 5907 5909 5909 5910 5910 5911 5912 5913 5914 5915 5915 5916 5917 5917 5918 5918 5919 5920 5921 5921 5922 5923 5923 5924 5924 5925 5925 5925 5926 5926 5927 5927 5927 5927 5927 5927 5927 5927 5927 5927 5926 5926
5861 5866 5869 5870 5871 5873 5874 5876 5878 5880 5882 5883 5885 5887 5891 5895 5899 5901 5899 5899 5900 5896 5895 5896 5895 5895 5895 5896 5895 5895 5896 5897 5898 5898 5899 5899 5900 5901 5902 5903 5905 5905 5906 5906 5907 5908 5908 5909 5910 5910 5911 5912 5913 5914 5915 5915 5916 5917 5917 5918 5918 5919 5920 5921 5921 5922 5923 5923 5924 5924 5924 5925 5925 5926 5926 5926 5927 5927 5927 5926 5926 5926 5926 5925 5924 5924
5859 5862 5863 5865 5867 5869 5871 5872 5875 5877 5879 5880 5882 5885 5889 5893 5897 5900 5899 5898 5898 5894 5892 5893 5893 5892 5893 5894 5895 5894 5894 5896 5896 5896 5897 5898 5899 5900 5901 5903 5904 5904 5905 5905 5906 5907 5907 5908 5909 5910 5911 5911 5912 5913 5914 5914 5915 5916 5917 5917 5918 5918 5919 5920 5920 5921 5922 5922 5923 5923 5924 5924 5925 5925 5925 5926 5926 5926 5926 5926 5925 5925 5925 5924 5923 5922
5856 5858 5859 5861 5863 5865 5866 5869 5872 5875 5876 5878 5880 5884 5886 5889 5895 5898 5897 5897 5897 5893 5891 5892 5891 5891 5891 5891 5893 5892 5891 5894 5894 5895 5895 5896 5897 5898 5900 5902 5903 5904 5904 5904 5905 5905 5906 5906 5907 5908 5909 5910 5911 5912 5913 5914 5914 5915 5916 5916 5917 5918 5918 5919 5920 5920 5921 5922 5922 5923 5923 5923 5924 5924 5924 5925 5925 5925 5925 5925 5924 5924 5923 5923 5922 5922
5853 5855 5855 5857 5859 5861 5862 5865 5869 5872 5873 5875 5879 5883 5884 5885 5890 5894 5896 5896 5895 5893 5891 5890 5889 5888 5888 5888 5891 5890 5889 5891 5891 5892 5893 5894 5895 5897 5899 5900 5902 5903 5903 5903 5904 5905 5905 5905 5905 5906 5908 5909 5910 5911 5912 5912 5913 5914 5915 5915 5916 5917 5918 5918 5919 5920 5920 5921 5921 5922 5922 5922 5923 5923 5923 5924 5924 5924 5924 5924 5924 5923 5923 5922 5922 5922
5850 5851 5852 5853 5855 5857 5859 5862 5867 5869 5869 5873 5878 5880 5883 5884 5885 5889 5893 5894 5895 5893 5889 5888 5887 5885 5885 5886 5888 5888 5887 5888 5889 5890 5892 5893 5893 5894 5897 5898 5900 5901 5902 5902 5903 5905 5906 5905 5903 5904 5906 5907 5908 5910 5911 5911 5912 5912 5913 5914 5915 5916 5917 5917 5918 5919 5919 5920 5920 5921 5921 5921 5922 5922 5922 5922 5923 5923 5923 5923 5923 5923 5922 5922 5922 5921
5846 5848 5849 5850 5851 5854 5856 5859 5863 5864 5866 5871 5875 5876 5880 5883 5884 5886 5887 5889 5892 5890 5888 5889 5886 5882 5883 5884 5884 5884 5884 5885 5888 5889 5891 5891 5891 5893 5894 5895 5897 5899 5900 5900 5901 5904 5906 5905 5903 5902 5903 5905 5907 5908 5909 5909 5910 5911 5912 5913 5914 5914 5915 5916 5917 5917 5918 5919 5919 5920 5920 5920 5920 5921 5921 5921 5921 5921 5921 5921 5921 5922 5921 5921 5921 5921
5842 5844 5845 5846 5848 5851 5853 5855 5857 5860 5864 5869 5872 5873 5876 5879 5883 5885 5884 5885 5886 5883 5884 5888 5887 5882 5879 5880 5881 5881 5881 5884 5886 5886 5887 5888 5888 5891 5892 5893 5894 5896 5898 5900 5901 5902 5904 5905 5904 5902 5901 5903 5905 5906 5907 5908 5909 5909 5910 5911 5912 5913 5914 5914 5915 5916 5917 5917 5918 5918 5918 5919 5919 5919 5919 5919 5919 5920 5920 5920 5920 5920 5920 5920 5920 5920
5839 5840 5841 5843 5845 5847 5849 5850 5853 5857 5860 5864 5867 5869 5872 5874 5877 5879 5880 5881 5878 5875 5879 5884 5887 5883 5877 5877 5879 5879 5880 5883 5884 5884 5885 5885 5886 5888 5890 5892 5893 5894 5895 5898 5899 5901 5902 5904 5905 5904 5902 5902 5902 5904 5905 5906 5907 5908 5908 5909 5910 5911 5912 5913 5913 5914 5915 5915 5916 5916 5916 5917 5917 5918 5918 5918 5918 5918 5918 5919 5919 5919 5919 5919 5919 5919
5836 5837 5838 5839 5842 5844 5845 5846 5849 5852 5854 5857 5861 5864 5867 5869 5871 5871 5873 5875 5872 5872 5877 5881 5884 5881 5875 5875 5878 5878 5879 5880 5881 5882 5883 5884 5884 5886 5888 5890 5892 5892 5893 5895 5897 5898 5900 5902 5903 5904 5903 5901 5901 5901 5903 5904 5905 5906 5907 5907 5908 5909 5910 5911 5911 5912 5913 5914 5914 5914 5914 5915 5915 5916 5916 5916 5916 5917 5917 5917 5918 5918 5918 5918 5917 5917
5832 5833 5835 5835 5837 5840 5841 5842 5845 5846 5847 5851 5856 5858 5861 5863 5865 5865 5868 5870 5871 5873 5877 5880 5879 5876 5874 5876 5876 5876 5878 5878 5879 5880 5881 5882 5882 5883 5886 5888 5889 5890 5890 5892 5895 5896 5898 5899 5900 5901 5901 5900 5899 5899 5900 5902 5903 5904 5905 5906 5907 5907 5908 5909 5909 5910 5911 5911 5912 5912 5912 5913 5913 5914 5914 5914 5914 5915 5915 5916 5916 5916 5916 5916 5915 5915
5827 5828 5831 5832 5833 5835 5838 5840 5842 5844 5844 5847 5852 5855 5856 5857 5860 5862 5865 5867 5869 5872 5875 5875 5872 5869 5873 5876 5875 5875 5875 5875 5877 5878 5878 5879 5880 5882 5883 5884 5886 5888 5889 5891 5893 5895 5895 5897 5897 5898 5899 5898 5897 5897 5898 5900 5901 5903 5904 5904 5905 5905 5906 5907 5907 5908 5909 5909 5910 5910 5910 5911 5911 5911 5912 5912 5912 5913 5913 5914 5914 5914 5914 5914 5913 5913
5824 5825 5827 5830 5831 5832 5835 5837 5838 5840 5841 5844 5848 5850 5850 5853 5856 5860 5863 5864 5867 5870 5870 5870 5868 5868 5872 5875 5874 5873 5873 5874 5874 5876 5876 5875 5877 5879 5880 5882 5884 5885 5888 5889 5891 5893 5893 5894 5896 5897 5897 5895 5894 5895 5896 5898 5899 5900 5901 5902 5902 5903 5904 5905 5905 5906 5906 5907 5907 5908 5908 5908 5909 5909 5909 5910 5910 5911 5912 5912 5912 5913 5912 5912 5911 5910
5821 5822 5824 5825 5827 5828 5830 5832 5833 5835 5838 5841 5843 5843 5846 5851 5854 5857 5860 5861 5865 5865 5864 5866 5868 5870 5872 5871 5870 5870 5871 5872 5872 5873 5873 5872 5874 5876 5876 5880 5883 5883 5885 5887 5889 5891 5891 5891 5893 5894 5894 5893 5892 5893 5894 5896 5897 5898 5899 5899 5900 5901 5902 5902 5903 5903 5904 5905 5905 5906 5906 5906 5906 5907 5907 5907 5908 5909 5910 5910 5911 5911 5910 5910 5909 5908
5818 5820 5820 5820 5822 5825 5826 5828 5829 5831 5835 5837 5838 5840 5846 5849 5849 5853 5856 5857 5858 5858 5859 5863 5865 5867 5870 5869 5868 5867 5867 5869 5869 5870 5870 5870 5872 5874 5874 5877 5880 5880 5882 5884 5886 5888 5888 5889 5890 5891 5891 5891 5890 5891 5893 5894 5895 5896 5897 5898 5898 5899 5900 5900 5900 5901 5902 5903 5903 5903 5903 5904 5904 5904 5905 5905 5906 5907 5908 5908 5908 5909 5908 5908 5907 5906
5814 5816 5818 5817 5818 5820 5822 5823 5825 5827 5830 5832 5835 5839 5842 5842 5842 5846 5849 5850 5852 5853 5856 5860 5861 5862 5866 5868 5869 5866 5864 5865 5866 5867 5868 5868 5871 5873 5872 5873 5876 5878 5880 5882 5885 5886 5886 5887 5888 5888 5889 5889 5889 5890 5891 5893 5893 5895 5896 5896 5897 5897 5897 5898 5898 5899 5900 5900 5901 5901 5901 5902 5902 5902 5903 5904 5905 5905 5906 5906 5906 5907 5906 5906 5905 5904
5810 5811 5814 5815 5815 5817 5816 5817 5821 5824 5825 5828 5831 5834 5836 5836 5837 5841 5844 5844 5846 5850 5853 5856 5857 5858 5861 5865 5868 5868 5864 5862 5863 5864 5865 5866 5869 5872 5871 5869 5871 5876 5880 5881 5883 5885 5885 5886 5885 5886 5886 5886 5888 5889 5890 5891 5892 5893 5894 5895 5895 5895 5896 5896 5897 5898 5898 5898 5899 5899 5899 5900 5900 5901 5901 5902 5903 5903 5904 5904 5904 5904 5904 5903 5903 5902
5805 5805 5809 5812 5813 5812 5809 5811 5817 5820 5821 5823 5824 5826 5829 5832 5834 5837 5839 5840 5841 5845 5848 5851 5852 5854 5858 5862 5866 5868 5865 5861 5861 5863 5863 5864 5867 5869 5871 5869 5868 5873 5878 5878 5879 5882 5883 5883 5883 5883 5883 5884 5885 5887 5888 5890 5891 5892 5893 5893 5894 5894 5895 5895 5895 5896 5896 5896 5896 5897 5898 5898 5899 5899 5900 5900 5901 5901 5902 5902 5902 5902 5902 5901 5901 5900
5800 5799 5802 5807 5808 5807 5806 5807 5812 5815 5817 5819 5820 5821 5825 5829 5832 5833 5835 5837 5838 5839 5842 5846 5848 5851 5857 5860 5862 5865 5864 5859 5859 5860 5860 5861 5863 5866 5870 5870 5868 5870 5876 5877 5877 5877 5878 5880 5881 5881 5880 5881 5883 5885 5887 5888 5889 5890 5891 5892 5892 5893 5893 5893 5894 5894 5894 5894 5895 5895 5896 5897 5897 5897 5898 5898 5899 5899 5900 5900 5900 5899 5899 5899 5899 5898
5797 5797 5796 5800 5803 5805 5806 5806 5806 5809 5813 5815 5815 5818 5821 5824 5827 5829 5830 5833 5834 5834 5838 5842 5842 5845 5853 5857 5859 5862 5861 5857 5857 5858 5856 5857 5859 5862 5867 5869 5867 5870 5874 5875 5874 5874 5876 5878 5879 5879 5879 5879 5880 5883 5885 5886 5887 5888 5890 5890 5890 5891 5891 5892 5892 5892 5892 5892 5893 5893 5894 5895 5895 5896 5896 5897 5897 5897 5898 5898 5897 5897 5897 5897 5897 5896
5789 5791 5791 5793 5797 5802 5805 5804 5802 5804 5807 5808 5810 5813 5815 5817 5820 5824 5827 5830 5830 5832 5836 5837 5834 5838 5848 5853 5855 5857 5857 5855 5856 5856 5856 5856 5858 5860 5864 5866 5865 5868 5871 5871 5871 5872 5874 5875 5876 5876 5877 5877 5878 5881 5883 5884 5886 5886 5887 5888 5889 5889 5889 5890 5890 5890 5890 5890 5890 5891 5892 5893 5893 5894 5894 5895 5895 5895 5896 5896 5895 5894 5894 5894 5895 5894
5780 5784 5787 5788 5790 5794 5798 5798 5797 5798 5800 5802 5805 5808 5810 5812 5816 5820 5825 5827 5827 5828 5831 5832 5831 5835 5842 5848 5850 5851 5852 5854 5855 5854 5855 5857 5858 5860 5863 5863 5863 5864 5865 5866 5867 5869 5870 5872 5872 5873 5874 5875 5876 5878 5880 5882 5883 5884 5885 5886 5887 5887 5887 5888 5888 5888 5888 5888 5888 5889 5890 5891 5891 5892 5892 5893 5893 5893 5893 5894 5893 5892 5891 5891 5891 5892
5773 5777 5780 5782 5783 5785 5789 5791 5792 5793 5796 5798 5801 5804 5806 5809 5812 5815 5820 5822 5821 5823 5827 5829 5831 5834 5837 5841 5845 5847 5849 5851 5851 5851 5853 5856 5857 5860 5861 5861 5860 5861 5861 5863 5865 5865 5866 5867 5869 5869 5869 5871 5873 5875 5877 5879 5880 5882 5883 5884 5885 5885 5885 5886 5886 5887 5886 5886 5886 5887 5888 5888 5889 5889 5890 5891 5891 5891 5891 5891 5891 5891 5889 5888 5888 5888
5768 5770 5773 5775 5778 5781 5784 5788 5791 5793 5793 5795 5797 5800 5802 5805 5808 5811 5813 5814 5817 5820 5822 5823 5828 5832 5833 5837 5842 5843 5845 5847 5847 5848 5851 5854 5855 5857 5858 5857 5857 5858 5859 5859 5861 5862 5862 5863 5865 5866 5866 5868 5870 5872 5874 5876 5877 5879 5880 5881 5882 5882 5883 5883 5884 5885 5884 5884 5884 5886 5886 5886 5887 5887 5888 5888 5889 5889 5889 5889 5889 5889 5888 5887 5885 5885
5762 5764 5766 5769 5773 5777 5780 5784 5790 5791 5791 5792 5794 5795 5798 5801 5805 5807 5807 5808 5813 5816 5815 5818 5824 5826 5828 5833 5838 5840 5842 5845 5844 5844 5847 5850 5851 5853 5854 5854 5855 5855 5855 5856 5858 5859 5860 5860 5861 5863 5863 5865 5867 5869 5870 5873 5874 5876 5877 5878 5879 5879 5880 5881 5882 5883 5883 5882 5883 5884 5884 5884 5885 5885 5886 5886 5886 5886 5886 5886 5886 5886 5886 5885 5884 5883
5756 5758 5761 5764 5767 5772 5775 5778 5784 5787 5789 5790 5791 5792 5794 5796 5799 5802 5803 5804 5808 5810 5811 5816 5819 5820 5823 5828 5832 5835 5838 5841 5840 5839 5843 5846 5847 5849 5849 5848 5850 5852 5852 5854 5856 5857 5858 5858 5858 5859 5861 5862 5864 5866 5868 5869 5871 5872 5874 5875 5876 5876 5878 5878 5879 5880 5881 5880 5880 5882 5882 5882 5883 5883 5883 5884 5884 5884 5884 5884 5883 5883 5883 5883 5882 5881
5748 5750 5754 5758 5762 5766 5770 5772 5777 5781 5784 5787 5789 5791 5792 5793 5794 5796 5798 5801 5805 5806 5808 5811 5813 5815 5817 5822 5825 5828 5831 5834 5835 5835 5836 5838 5841 5845 5845 5842 5843 5847 5848 5849 5852 5853 5854 5854 5854 5856 5858 5859 5861 5862 5864 5866 5868 5869 5870 5871 5873 5873 5875 5876 5876 5877 5878 5878 5878 5879 5880 5880 5880 5881 5881 5882 5882 5882 5881 5881 5881 5880 5880 5879 5879 5878
5741 5745 5749 5754 5757 5761 5764 5768 5771 5774 5776 5779 5783 5786 5788 5790 5791 5792 5793 5796 5800 5803 5804 5806 5807 5809 5812 5816 5820 5823 5825 5828 5830 5831 5832 5833 5834 5838 5840 5840 5840 5842 5844 5846 5848 5849 5849 5850 5851 5853 5855 5856 5858 5859 5861 5863 5865 5866 5867 5868 5870 5870 5872 5874 5874 5875 5875 5876 5876 5876 5877 5878 5878 5879 5879 5880 5880 5880 5879 5878 5878 5877 5876 5876 5875 5874
5737 5741 5745 5748 5751 5755 5761 5764 5765 5768 5771 5772 5774 5777 5780 5783 5787 5790 5792 5792 5794 5797 5801 5802 5802 5804 5808 5812 5814 5815 5818 5821 5824 5825 5827 5829 5830 5832 5834 5836 5837 5838 5839 5841 5844 5844 5846 5847 5849 5851 5852 5854 5855 5856 5857 5859 5861 5862 5864 5865 5867 5867 5869 5870 5871 5872 5872 5873 5873 5874 5875 5875 5876 5876 5877 5877 5877 5877 5877 5876 5875 5874 5873 5872 5871 5871
5731 5735 5739 5741 5745 5750 5755 5758 5760 5764 5765 5763 5765 5770 5774 5779 5783 5787 5789 5789 5790 5793 5795 5796 5797 5799 5804 5808 5808 5809 5812 5815 5818 5820 5822 5825 5826 5828 5829 5830 5833 5835 5833 5834 5838 5840 5841 5843 5845 5848 5849 5851 5852 5853 5855 5856 5857 5858 5860 5862 5863 5864 5865 5867 5869 5869 5869 5870 5870 5871 5872 5873 5873 5874 5874 5874 5874 5874 5874 5873 5872 5871 5870 5869 5868 5867
5723 5728 5733 5737 5740 5743 5748 5753 5756 5755 5753 5756 5762 5767 5770 5774 5779 5782 5784 5786 5789 5791 5791 5792 5794 5797 5799 5801 5802 5804 5806 5808 5811 5812 5816 5820 5821 5822 5825 5826 5828 5830 5829 5828 5831 5834 5837 5840 5842 5844 5846 5847 5849 5851 5852 5853 5854 5855 5857 5858 5859 5861 5862 5864 5865 5866 5866 5867 5868 5869 5870 5870 5871 5871 5871 5871 5871 5871 5871 5870 5869 5868 5867 5866 5865 5864
5718 5724 5729 5732 5735 5738 5743 5748 5747 5744 5746 5755 5762 5763 5764 5767 5771 5775 5778 5781 5784 5787 5789 5790 5791 5792 5793 5793 5794 5796 5798 5801 5803 5803 5806 5813 5816 5818 5821 5821 5822 5825 5825 5825 5827 5829 5833 5837 5839 5840 5842 5844 5845 5847 5848 5849 5851 5852 5853 5854 5856 5857 5858 5860 5862 5863 5863 5864 5865 5866 5867 5867 5867 5867 5868 5868 5868 5867 5867 5867 5866 5865 5864 5862 5861 5860
5716 5719 5722 5726 5729 5732 5737 5739 5738 5739 5747 5754 5756 5757 5759 5761 5764 5767 5769 5772 5777 5782 5784 5784 5784 5785 5786 5787 5789 5791 5793 5795 5796 5795 5797 5803 5810 5813 5814 5815 5817 5819 5820 5822 5824 5825 5827 5831 5835 5837 5839 5840 5841 5843 5844 5846 5847 5848 5849 5851 5852 5853 5855 5857 5859 5860 5860 5861 5862 5863 5863 5864 5864 5864 5864 5864 5864 5863 5863 5863 5862 5861 5860 5859 5857 5856
5711 5712 5715 5719 5722 5724 5728 5732 5734 5738 5743 5745 5747 5751 5753 5754 5757 5759 5761 5764 5770 5773 5772 5772 5774 5776 5778 5780 5782 5784 5786 5787 5788 5790 5791 5795 5801 5805 5808 5810 5811 5812 5814 5816 5819 5820 5821 5824 5829 5833 5835 5835 5836 5838 5841 5842 5843 5844 5846 5847 5848 5850 5851 5853 5855 5856 5857 5858 5859 5859 5860 5860 5860 5860 5860 5860 5860 5859 5859 5858 5858 5857 5856 5855 5853 5852
5704 5706 5708 5713 5716 5719 5723 5728 5731 5732 5734 5738 5742 5744 5746 5748 5750 5751 5754 5758 5761 5761 5761 5764 5768 5770 5772 5775 5776 5777 5780 5782 5783 5785 5787 5789 5792 5796 5801 5804 5804 5806 5807 5809 5812 5814 5815 5816 5820 5825 5829 5830 5831 5833 5835 5837 5838 5840 5841 5843 5844 5846 5847 5849 5851 5852 5853 5854 5854 5855 5855 5855 5855 5855 5855 5855 5855 5855 5855 5854 5854 5853 5852 5850 5849 5847
5696 5699 5703 5707 5710 5713 5718 5722 5724 5726 5730 5734 5736 5737 5740 5743 5745 5747 5752 5756 5756 5756 5759 5762 5764 5766 5768 5771 5774 5776 5778 5779 5779 5782 5787 5789 5788 5790 5793 5796 5798 5799 5800 5802 5805 5807 5809 5809 5812 5818 5823 5824 5825 5827 5830 5832 5833 5835 5836 5838 5840 5842 5843 5845 5847 5848 5849 5850 5850 5850 5851 5851 5851 5851 5850 5851 5851 5851 5851 5850 5849 5849 5847 5846 5844 5843
5691 5695 5699 5702 5705 5708 5712 5716 5719 5723 5726 5728 5731 5733 5735 5737 5740 5745 5748 5750 5750 5751 5754 5757 5760 5762 5765 5767 5770 5774 5775 5775 5776 5780 5783 5783 5784 5786 5788 5789 5790 5792 5792 5794 5797 5799 5801 5803 5807 5812 5816 5818 5820 5822 5824 5826 5828 5829 5831 5833 5835 5837 5839 5840 5842 5843 5844 5845 5845 5846 5846 5847 5847 5846 5846 5846 5847 5847 5847 5846 5845 5844 5843 5841 5840 5839
5688 5692 5695 5697 5700 5704 5708 5711 5714 5718 5721 5723 5726 5728 5728 5730 5736 5740 5741 5742 5745 5747 5751 5754 5755 5757 5761 5763 5766 5768 5770 5771 5772 5774 5775 5775 5777 5780 5781 5781 5783 5784 5785 5787 5788 5789 5794 5798 5802 5806 5809 5811 5813 5816 5817 5819 5822 5823 5825 5827 5829 5832 5834 5836 5837 5838 5839 5840 5841 5842 5843 5843 5843 5842 5842 5842 5842 5842 5842 5841 5840 5839 5838 5837 5836 5834
5681 5686 5689 5692 5696 5701 5704 5707 5710 5713 5716 5719 5721 5721 5722 5727 5733 5734 5734 5737 5741 5744 5748 5750 5751 5753 5756 5758 5759 5761 5763 5766 5767 5769 5770 5771 5773 5771 5770 5772 5775 5776 5778 5780 5780 5782 5789 5794 5795 5798 5801 5803 5806 5808 5810 5814 5816 5818 5819 5821 5824 5827 5829 5831 5832 5834 5835 5836 5837 5837 5838 5838 5838 5838 5837 5836 5836 5837 5838 5837 5836 5835 5833 5832 5831 5829
5675 5681 5684 5687 5692 5696 5700 5702 5704 5707 5714 5716 5715 5715 5718 5722 5725 5727 5731 5735 5737 5740 5743 5745 5747 5748 5750 5751 5752 5753 5756 5759 5761 5764 5766 5768 5768 5766 5763 5765 5767 5768 5771 5774 5775 5778 5784 5787 5788 5790 5793 5796 5798 5801 5804 5808 5810 5812 5813 5816 5819 5822 5824 5826 5827 5829 5830 5831 5832 5833 5833 5833 5833 5833 5832 5831 5830 5831 5832 5832 5830 5830 5828 5826 5826 5824
5667 5673 5678 5683 5688 5692 5695 5697 5699 5704 5711 5712 5709 5709 5712 5715 5720 5725 5728 5729 5731 5734 5737 5738 5740 5742 5744 5745 5746 5746 5748 5750 5753 5757 5759 5761 5762 5761 5759 5761 5763 5764 5765 5768 5769 5772 5776 5779 5780 5782 5785 5787 5790 5793 5797 5801 5804 5805 5808 5810 5813 5816 5819 5820 5822 5823 5824 5826 5827 5828 5829 5828 5828 5828 5828 5826 5825 5826 5826 5826 5825 5824 5823 5821 5820 5818
5660 5665 5670 5677 5682 5685 5689 5694 5697 5701 5704 5704 5704 5704 5706 5710 5718 5722 5722 5722 5726 5730 5731 5731 5733 5737 5739 5741 5742 5742 5742 5743 5745 5748 5749 5750 5752 5753 5754 5756 5758 5758 5759 5763 5764 5765 5767 5770 5772 5774 5776 5779 5783 5786 5790 5794 5797 5799 5802 5805 5809 5812 5813 5815 5816 5818 5819 5821 5822 5823 5823 5823 5823 5823 5823 5822 5821 5820 5820 5820 5819 5819 5818 5816 5814 5813
5657 5661 5665 5670 5674 5677 5683 5688 5691 5694 5696 5697 5699 5700 5701 5705 5713 5716 5715 5717 5721 5724 5726 5728 5731 5733 5734 5736 5737 5738 5738 5738 5740 5742 5742 5742 5745 5748 5750 5751 5751 5750 5752 5754 5756 5757 5758 5760 5762 5764 5768 5771 5775 5780 5784 5787 5790 5793 5797 5801 5804 5806 5808 5809 5811 5813 5815 5816 5817 5818 5818 5818 5819 5818 5817 5816 5815 5814 5814 5815 5814 5813 5812 5810 5808 5807
5653 5658 5661 5664 5668 5673 5678 5681 5684 5687 5689 5690 5692 5693 5694 5699 5706 5709 5711 5714 5716 5718 5722 5726 5728 5729 5730 5732 5733 5733 5733 5734 5735 5736 5737 5738 5739 5742 5745 5747 5746 5745 5746 5746 5746 5748 5750 5751 5753 5755 5759 5764 5769 5773 5777 5781 5785 5788 5792 5795 5797 5799 5801 5804 5806 5808 5810 5811 5812 5812 5813 5813 5813 5813 5812 5812 5811 5809 5807 5808 5809 5808 5806 5804 5802 5801
5650 5655 5658 5660 5665 5669 5672 5675 5678 5681 5683 5683 5683 5686 5689 5693 5699 5704 5707 5710 5712 5715 5719 5722 5724 5725 5726 5727 5728 5728 5728 5729 5730 5731 5733 5733 5734 5736 5740 5742 5742 5742 5743 5744 5744 5744 5745 5745 5745 5748 5751 5755 5760 5765 5771 5776 5779 5782 5785 5788 5791 5794 5796 5799 5801 5803 5804 5805 5806 5806 5806 5807 5807 5808 5808 5808 5806 5803 5800 5801 5803 5802 5800 5799 5797 5795
5647 5651 5653 5656 5660 5664 5667 5670 5673 5676 5678 5678 5680 5683 5687 5691 5695 5700 5704 5707 5709 5711 5713 5717 5719 5720 5721 5722 5723 5723 5724 5725 5726 5727 5729 5729 5731 5732 5735 5736 5737 5738 5739 5742 5743 5745 5747 5747 5746 5746 5747 5749 5753 5760 5766 5770 5773 5776 5780 5784 5787 5789 5792 5794 5796 5797 5798 5799 5800 5800 5800 5802 5803 5804 5805 5803 5801 5799 5797 5797 5797 5796 5795 5793 5791 5790
5644 5647 5649 5652 5655 5659 5662 5664 5667 5671 5674 5676 5678 5682 5686 5689 5694 5698 5700 5703 5705 5707 5709 5711 5713 5714 5716 5717 5718 5719 5720 5721 5722 5723 5724 5725 5727 5729 5730 5730 5729 5730 5733 5736 5739 5742 5746 5747 5745 5744 5744 5746 5752 5758 5763 5767 5770 5774 5777 5780 5782 5785 5787 5788 5790 5791 5792 5793 5794 5794 5796 5798 5799 5800 5799 5797 5795 5794 5793 5792 5792 5790 5789 5787 5786 5784
5639 5642 5645 5648 5652 5655 5657 5660 5664 5668 5671 5674 5677 5681 5684 5687 5691 5694 5696 5699 5702 5703 5704 5706 5708 5710 5711 5712 5714 5715 5715 5717 5718 5718 5719 5720 5720 5721 5723 5724 5722 5722 5726 5729 5732 5735 5738 5739 5740 5741 5743 5746 5751 5756 5760 5764 5767 5770 5773 5776 5778 5779 5781 5783 5784 5785 5786 5787 5789 5790 5791 5793 5794 5794 5792 5791 5790 5789 5787 5787 5786 5785 5783 5781 5780 5778